マクノート彗星

P/2005 L1 ( McNaught) 2013

English version
Home page
Updated on August 11, 2020

---------------------------------------------------------------------

・ プロフィール

・ 写真集

・ 軌道要素

Epoch 2013 Dec. 14.0 TT = JDT 2456640.5                                         
T 2013 Nov. 24.58846 TT                                 Rudenko                 
q   3.1594206            (2000.0)            P               Q                  
n   0.12382595     Peri.  149.76534     +0.31254414     +0.94567213             
a   3.9865290      Node   138.26357     -0.89624608     +0.32481414             
e   0.2074758      Incl.    7.73138     -0.31473660     +0.01414159             
P   7.96                                                                        
From 241 observations 2005 May 16-Sept. 15, mean residual 0".5.                 

・ 星図

・ 光度変化

        m1 = 14.0 + 5 logΔ + 10.0 log r

        ※ 灰色の曲線は、m1 = 10.0 + 5 logΔ + 10.0 log r の光度曲線です。

---------------------------------------------------------------------

軌道要素はM.P.E.C. 2020-P19に掲載されたものです。
星図はステラナビゲータ Ver.8 (アストロアーツ) で作成したものです。
光度グラフはComet for Windowsで作成したものです。

---------------------------------------------------------------------

Copyright(C) Seiichi Yoshida (comet@aerith.net). All rights reserved.